Location: ????
(33.7872°N, 35.4807°E)
Time: 07:49:27
(UTC+00:00)

Daily predictions for brighter satellites

Satellite Brightness Start Highest point End
(mag) Time Altitude Azimuth Time Altitude Azimuth Time Altitude Azimuth
NOAA 12 4.2 15:13:20 10° SSE 15:18:33 84° WSW 15:23:48 10° NNW
Cosmos 1892 Rocket 3.8 15:14:29 10° SSE 15:18:38 46° E 15:22:48 10° NNE
DELTA 2 R/B (1) 3.6 15:13:28 10° WNW 15:19:04 82° NNE 15:24:37 10° ESE
Cosmos 1606 Rocket 3.7 15:18:58 10° N 15:23:16 53° E 15:27:35 10° SSE
H-2A R/B 3.1 15:20:20 10° N 15:24:38 50° WNW 15:28:48 10° SSW
BREEZE-M DEB (TANK) 3.5 15:22:19 10° NNW 15:24:41 20° NNE 15:26:29 10° E
ATLAS 3B R/B 2.9 15:17:45 10° NNW 15:24:51 90° ENE 15:32:12 10° SSE
Meteor 2-5 Rocket 4.5 15:22:03 10° SSW 15:27:32 56° W 15:32:59 10° N
Nadezhda 4 Rocket 4.4 15:23:52 10° SSE 15:29:37 40° E 15:35:20 10° NNE
Cosmos 2142 Rocket 4.4 15:23:47 10° N 15:29:57 73° E 15:36:02 10° SSE
MOS 1 Rocket 3.4 15:27:53 10° NNE 15:31:57 42° E 15:36:02 10° S
Cosmos 2228 3.0 15:31:15 10° N 15:35:32 87° E 15:39:48 10° S
Cosmos 1777 Rocket 4.3 15:30:53 10° SSW 15:36:05 71° WNW 15:41:22 10° NNE
SJ 16-02 1.8 15:32:04 10° S 15:36:10 40° E 15:40:18 10° NNE
Cosmos 2263 Rocket 4.2 15:32:07 10° WSW 15:36:52 27° WNW 15:41:38 10° N
Abrixas rocket 2.7 15:34:34 10° WNW 15:37:08 47° SW 15:39:40 10° SE
SKYMED 2 3.5 15:35:37 10° NNE 15:39:58 79° ESE 15:44:18 10° S
IUS-9 SRM-1 3.8 15:48:13 10° S 15:48:36 10° S 15:49:03 10° SSE
ARGOS 4.2 15:48:32 10° ESE 15:52:33 22° ENE 15:56:33 10° NNE
Cosmos 1703 4.2 15:50:30 10° SSE 15:53:45 26° E 15:56:11 15° NE
Cosmos 2058 Rocket 3.1 15:50:09 10° N 15:54:36 57° E 15:59:01 10° SSE
Cosmos 1455 3.1 15:51:38 10° NNE 15:54:55 27° E 15:58:12 10° SE
Cosmos 1340 4.0 15:53:23 10° SE 15:56:03 19° E 15:56:11 19° E
Cosmos 44 3.7 15:54:23 10° S 15:58:39 38° ESE 16:01:48 18° NE
Cosmos 1300 4.5 15:55:30 10° NNW 15:58:59 35° W 16:02:28 10° SSW
X-37B 2.0 15:56:09 10° W 15:59:01 30° NNW 16:00:57 16° NNE
Okean 1-7 Rocket 3.6 15:55:19 10° S 15:59:50 88° W 16:04:25 10° N
COSMOS 2455 3.8 15:56:59 10° SW 16:02:44 47° WNW 16:08:32 10° NNE
Lacrosse 5 3.2 16:01:20 10° N 16:04:56 19° NE 16:05:44 19° NE
Cosmos 1943 4.2 15:59:42 10° NNW 16:05:08 50° WSW 16:10:32 10° S
Cosmos 1939 Rocket 3.7 16:01:08 10° S 16:05:12 55° W 16:09:14 10° NNW
Cosmos 2026 Rocket 4.5 16:01:22 10° SSE 16:06:46 35° E 16:12:15 10° NNE
CZ-2C R/B 3.5 16:04:20 14° NE 16:08:24 30° E 16:13:16 10° SSE
Cosmos 1844 3.6 16:03:07 10° SSW 16:08:43 86° ESE 16:14:27 10° NNE
ISS -1.8 16:07:08 10° W 16:09:54 23° NW 16:12:02 14° NNE
Cosmos 1726 Rocket 4.5 16:05:58 10° NNW 16:10:13 51° W 16:14:28 10° S
IRS-1C Rocket 4.0 16:05:33 10° SSE 16:10:47 79° ENE 16:16:03 10° N
Cosmos 1626 Rocket 3.5 16:07:09 10° S 16:11:25 61° E 16:15:45 10° NNE
Feng Yun 1-1 Rocket 4.4 16:06:28 10° S 16:11:50 75° WSW 16:17:19 10° NNW
NOSS 2-1 (C) 3.1 16:08:32 10° SSW 16:12:04 51° ESE 16:13:07 35° ENE
Cosmos 990 Rocket 4.2 16:07:21 10° S 16:12:21 49° ESE 16:16:10 17° NNE
ERS-2 2.7 16:09:30 10° N 16:13:05 59° WNW 16:16:38 10° SSW
PSLV R/B 4.0 16:09:32 10° N 16:13:46 83° WNW 16:17:58 10° SSW
CZ-4 R/B 1.3 16:13:14 10° SSE 16:17:21 69° ENE 16:21:25 10° N
NOSS 2-1 (D) 2.9 16:14:22 10° SSW 16:17:56 63° ESE 16:18:51 41° ENE
Cosmos 1328 4.2 16:15:33 10° SSE 16:19:18 40° E 16:20:06 36° ENE
USA 267 3.3 16:16:51 21° NE 16:21:26 65° SE 16:27:55 10° SSW
DMSP B5D1-3 4.4 16:23:05 10° NNE 16:28:12 85° ESE 16:33:18 10° SSW
CZ-2C R/B 3.6 16:24:45 10° S 16:29:49 62° W 16:35:14 10° NNW
Cosmos 1844 Rocket 3.6 16:25:38 10° SW 16:31:04 47° WNW 16:36:31 10° N
Okean-O 2.5 16:27:28 10° SSE 16:31:53 90° ENE 16:36:20 10° NNW
Cosmos 2195 Rocket 4.4 16:25:58 10° S 16:32:13 73° E 16:38:33 10° N
Hubble Space Telescope 1.7 16:28:34 10° WSW 16:32:25 38° S 16:33:26 32° SE
Meteor 1-21 Rocket 4.4 16:27:01 10° SSW 16:32:32 72° W 16:38:03 10° N
H-2A R/B 1.8 16:27:51 10° SSE 16:32:46 78° ENE 16:37:48 10° N
Cosmos 1758 Rocket 4.4 16:29:11 10° SSE 16:32:04 32° SE 16:32:04 32° SE
OAO 1 4.5 16:33:55 10° W 16:39:26 78° N 16:41:03 47° E
Cosmos 2278 Rocket 3.2 16:34:54 10° SSE 16:38:31 28° SE 16:38:31 28° SE
Cosmos 923 Rocket 4.0 16:35:07 10° N 16:40:21 55° ENE 16:42:34 32° SE
Cosmos 1898 Rocket 3.4 16:35:20 10° SSW 16:40:37 80° ESE 16:43:21 29° NNE
Cosmos 1627 Rocket 4.3 16:35:51 10° S 16:41:59 77° E 16:48:12 10° N
Meteor 2-8 Rocket 4.4 16:36:37 10° N 16:42:34 55° E 16:48:32 10° SSE
Cosmos 158 Rocket 3.9 16:40:58 10° NNW 16:46:19 70° ENE 16:51:41 10° SSE
Cosmos 1428 Rocket 4.4 16:40:56 10° S 16:47:10 79° E 16:53:28 10° N
Cosmos 2098 Rocket 4.2 16:40:44 10° S 16:47:21 66° E 16:54:42 10° NNE
Cosmos 1680 Rocket 4.2 16:42:42 10° N 16:46:09 36° NNE 16:46:09 36° NNE
Cosmos 1602 Rocket 4.0 16:47:13 10° SSW 16:51:28 60° W 16:54:20 20° N
CSL-04 Rocket 3.5 16:48:11 10° SSE 16:53:32 79° ENE 16:58:59 10° N
YAOGAN 1 3.4 16:50:08 10° S 16:54:18 49° W 16:58:30 10° NNW
Cosmos 489 Rocket 4.5 16:49:00 10° NNW 16:55:23 84° WSW 17:01:40 10° SSE
Cosmos 1092 Rocket 4.4 16:51:04 10° SSW 16:57:12 62° W 17:03:19 10° N
Helios 1A Rocket 3.7 16:56:08 10° S 17:00:09 52° W 17:04:12 10° NNW
Iridium 4 Rocket 3.8 17:05:06 10° N 17:10:38 67° W 17:15:40 10° S
SJ 16-02 4.2 17:12:29 10° W 17:14:54 14° WNW 17:17:20 10° NNW
Cosmos 1937 Rocket 3.8 17:10:44 10° SSW 17:15:58 66° WNW 17:16:31 62° NW
CZ-3B R/B 4.1 17:18:40 10° NNW 17:43:06 - SE 17:20:09 26° NNW
ARGOS 4.4 17:27:31 10° SSW 17:32:29 39° W 17:37:29 10° NNW
Lacrosse 5 3.9 17:43:18 10° NW 17:45:00 21° NW 17:45:00 21° NW
CZ-2C R/B 4.4 17:45:49 20° NNW 17:48:32 30° WNW 17:53:21 10° SW
USA 267 4.4 18:04:12 34° NW 18:04:12 34° NW 18:09:51 10° W
